Theta_e
341 343 340 343 348 345 346 347 337 329 325 315 315 321 319 313 316 323 303 303 303 303 303 306 311 311 311 311 312 313 313 314 313 314 314 313 315 314 313 315 313 315 315 316 317 317 317 317 320
342 340 338 344 343 336 342 339 339 327 315 312 311 312 313 308 305 303 304 302 302 302 302 306 310 309 309 310 311 312 312 312 312 312 312 314 314 314 313 312 311 314 314 315 316 316 315 316 317
338 334 340 341 338 335 341 335 325 316 313 314 311 308 309 305 302 303 301 302 302 301 301 305 307 308 308 309 310 310 310 310 312 312 312 312 312 311 309 310 310 311 312 313 314 315 314 315 315
332 328 329 338 338 332 337 328 319 315 311 309 311 307 304 300 302 302 301 301 301 300 300 302 305 306 306 308 309 309 310 311 311 310 310 310 308 307 308 308 309 309 310 311 311 311 312 313 313
329 332 333 333 332 327 325 322 318 317 313 311 309 307 304 301 301 301 301 301 300 300 299 299 302 303 304 305 308 308 308 308 308 308 307 307 305 305 305 307 307 308 308 308 308 309 311 312 312
335 332 328 326 329 323 319 318 315 314 311 307 308 307 304 300 301 300 300 300 300 299 299 298 298 300 301 304 306 307 307 306 305 304 304 304 302 302 302 303 304 305 306 306 306 307 308 308 308
335 333 331 331 328 324 319 312 315 313 310 307 305 307 303 301 300 299 300 300 299 299 298 298 298 298 298 300 303 303 304 303 302 301 302 300 299 299 300 300 301 303 303 303 304 304 305 305 306
329 330 330 329 328 328 313 310 307 310 306 303 303 307 304 301 300 299 299 299 299 298 298 298 298 297 298 298 299 299 300 300 299 299 299 297 296 296 298 297 299 301 301 301 301 302 301 302 303
327 329 326 327 326 321 310 311 304 303 305 302 301 303 301 299 299 300 300 300 300 299 298 298 297 297 298 298 297 297 297 297 297 297 296 295 295 295 296 296 298 299 299 299 299 300 300 299 298
328 327 328 319 318 317 310 311 306 306 305 302 300 299 299 299 300 300 300 301 300 299 298 298 297 297 297 297 297 297 297 296 296 296 296 296 295 295 295 296 296 297 297 297 298 298 298 298 298
318 324 317 312 311 311 309 307 305 308 308 305 303 301 300 300 300 300 300 300 299 298 298 297 297 297 297 297 297 297 297 297 296 296 296 296 296 296 296 295 296 296 296 297 297 298 298 298 298
318 311 312 309 306 308 309 306 306 306 306 304 303 300 300 300 300 299 299 300 299 298 298 297 297 297 297 297 297 297 297 297 297 296 296 296 296 296 295 295 296 296 297 297 297 297 297 297 297
316 310 308 306 306 306 306 306 306 303 301 301 300 299 300 300 299 299 299 299 299 298 297 297 297 297 297 297 297 297 297 297 296 296 296 295 295 295 295 295 296 297 297 297 297 297 297 297 297
310 310 307 306 306 305 307 304 305 302 300 300 300 300 300 300 299 299 299 299 299 298 297 297 297 297 297 297 297 297 297 296 295 295 295 295 295 295 295 296 297 297 297 296 296 296 296 296 296
309 311 309 308 307 306 306 306 306 303 301 300 300 301 300 300 299 299 299 299 299 298 297 297 297 297 297 297 297 297 296 295 295 295 295 294 294 294 295 296 296 296 296 295 296 296 296 296 296
312 313 317 309 307 304 306 315 306 302 301 301 300 301 301 300 299 298 298 298 298 297 297 297 297 297 297 297 296 296 295 295 295 295 295 294 294 295 296 296 296 295 295 295 295 296 296 296 296
315 316 315 313 307 306 308 313 305 301 302 302 301 301 301 301 299 298 298 298 298 297 297 297 297 297 297 297 296 296 295 295 295 295 295 294 294 295 296 296 297 296 296 296 296 297 296 296 297
314 314 313 314 310 307 309 310 306 301 301 303 301 300 300 300 300 298 298 298 297 297 296 297 297 297 297 297 296 296 296 295 295 295 294 293 294 295 296 296 296 296 297 297 297 298 297 297 297
311 312 312 311 308 309 310 310 309 305 302 303 302 300 300 300 299 298 298 298 297 297 297 297 297 297 297 296 296 295 296 295 295 295 294 293 294 294 295 295 296 296 296 297 297 297 298 297 297
310 311 312 309 307 308 309 310 309 307 305 304 303 301 300 300 299 299 298 298 297 296 296 297 297 297 296 296 295 295 295 295 295 295 294 294 293 294 294 295 295 295 295 297 297 297 298 298 297
310 311 310 308 307 307 308 312 309 305 304 302 302 302 301 299 300 299 298 299 298 297 297 296 297 297 296 296 295 295 296 296 295 295 294 294 293 294 294 294 294 294 295 295 296 297 297 298 298
312 306 307 308 310 315 308 316 312 308 305 302 303 301 300 299 299 299 298 299 298 297 296 296 296 296 296 295 295 295 296 296 295 295 295 294 294 294 294 294 294 294 294 294 295 296 296 296 296
309 306 308 309 311 312 312 314 315 306 309 307 304 303 301 300 299 299 299 299 298 297 296 296 296 296 296 296 295 295 296 296 295 295 295 295 294 294 295 295 294 294 294 294 294 295 295 296 295
306 308 309 310 313 317 312 312 315 313 311 307 306 303 301 299 299 299 298 298 297 297 296 296 297 296 296 295 295 295 296 296 296 295 295 295 294 294 295 295 296 295 295 294 293 294 294 293 295
307 310 318 319 319 317 309 311 315 311 307 306 305 304 301 299 298 299 298 298 298 297 297 296 297 297 296 295 295 295 295 296 296 295 295 295 295 294 294 295 296 295 295 295 294 293 293 293 293
308 311 316 317 317 316 306 315 317 308 303 303 301 302 301 299 298 299 299 299 298 297 297 296 297 296 296 295 295 295 295 295 295 295 295 295 295 294 294 294 295 296 296 295 294 294 293 292 293
308 312 307 312 309 314 315 313 309 304 303 301 301 300 301 299 298 299 298 298 298 297 297 296 297 296 296 295 295 295 295 295 295 295 295 295 295 294 294 294 295 296 297 296 295 294 294 293 292
305 305 312 313 324 318 315 314 315 309 309 305 301 301 301 300 298 299 298 298 298 297 297 296 296 296 296 295 295 294 294 294 295 295 295 295 295 295 295 294 294 295 296 297 296 294 294 293 293
306 308 307 310 311 318 316 316 313 314 312 309 305 302 301 300 298 299 298 298 298 297 296 296 296 296 295 295 295 294 294 294 295 295 295 295 295 295 295 294 294 294 295 295 296 295 293 293 293
304 307 309 317 317 310 316 319 308 309 309 308 307 303 301 300 299 298 298 298 297 297 296 296 296 296 295 295 295 294 294 294 294 295 295 295 295 295 295 294 294 294 294 295 296 296 294 293 293
Wind_Speed
5 6 4 3 4 4 2 4 4 6 3 4 5 3 8 10 6 3 5 6 6 8 10 12 14 16 17 18 17 16 16 15 15 14 14 15 15 15 15 17 16 17 17 17 18 18 18 17 18
7 4 2 1 5 5 4 4 6 5 9 8 6 3 5 6 10 8 4 5 7 8 10 12 13 15 15 15 14 14 13 14 14 14 14 15 15 15 17 17 17 17 16 17 17 18 19 19 18
6 2 3 3 3 4 2 4 9 11 7 2 4 6 3 5 8 5 5 5 6 9 10 11 13 14 13 12 12 12 12 11 12 13 14 15 16 17 17 17 17 15 16 17 18 18 18 19 19
3 3 3 5 1 3 3 8 12 10 4 2 6 8 6 6 3 5 5 5 6 8 10 11 13 13 12 12 11 10 10 11 12 12 13 15 16 16 16 15 15 15 17 18 17 18 18 18 19
1 2 3 2 3 4 3 8 7 6 5 6 1 6 5 6 8 6 5 5 6 8 9 10 12 12 12 11 11 10 10 10 11 12 12 12 13 14 14 14 14 15 17 17 17 18 18 17 18
3 3 5 4 4 4 6 8 5 3 4 6 5 6 5 8 5 5 4 5 7 8 9 10 11 12 11 11 10 10 10 10 11 11 12 11 12 13 13 13 13 15 16 17 17 17 17 18 19
3 3 2 0 5 6 5 5 4 4 6 5 3 3 6 8 5 4 4 5 6 8 9 10 11 12 11 11 11 10 10 11 11 11 11 12 12 13 13 13 13 14 16 17 17 17 17 17 18
1 1 3 2 5 3 8 6 4 1 5 5 2 3 6 10 7 4 3 4 6 7 9 10 11 11 10 10 11 10 10 11 11 11 12 13 12 14 14 14 15 16 16 15 16 16 17 17 18
1 4 2 2 3 5 9 5 3 2 7 5 3 5 11 12 7 3 1 4 5 7 8 9 10 10 10 9 10 10 11 11 11 11 13 13 13 14 15 16 17 17 17 17 16 16 17 17 15
2 2 3 3 2 3 9 4 8 6 9 7 10 12 11 10 5 2 3 5 6 8 8 9 10 10 10 10 10 10 10 10 11 12 13 13 14 14 16 16 17 17 18 18 18 18 18 15 16
4 3 4 4 3 6 8 7 3 6 5 6 12 13 12 8 4 3 4 5 5 6 8 8 9 10 10 10 10 10 10 11 11 13 14 13 14 15 16 17 17 17 18 18 19 19 17 19 19
3 5 2 4 5 5 7 8 6 1 4 5 13 14 11 7 5 4 3 4 5 6 7 8 9 10 10 10 10 10 10 11 13 13 13 15 15 16 17 17 17 17 17 19 19 19 19 19 19
6 5 5 7 7 7 7 4 4 6 7 12 14 11 9 6 5 3 2 3 4 6 7 7 7 9 10 11 11 10 10 11 14 13 13 14 15 16 18 17 17 17 17 18 19 19 19 19 20
5 8 9 4 6 5 4 5 4 7 9 11 11 9 8 6 4 2 1 2 4 6 6 6 7 8 9 10 10 10 10 12 11 11 13 14 15 16 17 17 18 18 17 18 18 18 18 18 19
8 7 5 5 4 3 3 5 6 12 12 11 10 9 7 6 4 1 1 1 5 5 5 6 6 7 9 10 11 10 11 10 11 12 13 15 15 16 17 16 17 19 18 18 16 17 17 18 18
3 4 3 5 6 3 4 2 6 12 13 11 10 9 7 6 4 2 1 1 3 5 5 5 7 8 9 10 10 10 10 9 10 12 13 15 16 16 15 15 16 18 17 16 15 15 18 17 18
3 2 1 4 6 3 6 0 6 11 12 11 11 9 8 6 6 3 2 1 3 5 5 5 6 7 9 9 9 9 9 9 10 11 13 16 15 15 15 15 16 18 17 16 16 17 17 19 20
2 2 2 3 6 7 6 10 5 11 13 11 11 10 9 8 6 4 4 3 3 4 4 4 5 6 8 8 8 8 8 8 9 11 13 15 14 15 16 15 16 17 17 17 18 18 19 19 18
1 2 4 1 2 4 7 11 8 11 13 12 11 11 10 9 6 7 6 4 3 3 3 4 5 6 7 8 8 7 9 8 9 10 12 13 14 14 15 15 16 16 17 17 17 18 18 18 19
2 4 2 2 2 4 5 11 8 10 13 13 13 13 12 10 9 9 8 6 4 5 4 3 4 4 5 6 6 5 7 6 7 10 11 13 13 13 14 15 15 16 17 15 15 18 19 16 19
3 5 2 4 1 4 7 4 4 6 9 8 13 11 11 12 10 9 9 8 6 6 4 5 4 4 4 5 6 5 5 6 7 10 11 12 12 12 13 14 14 15 16 16 16 15 18 19 20
5 2 1 3 4 2 2 2 4 6 7 11 13 15 14 13 11 10 10 10 8 6 5 5 5 4 4 4 4 5 5 7 9 9 10 12 11 12 14 14 14 15 16 16 16 15 16 15 18
3 0 2 3 4 4 3 4 5 2 6 12 14 16 15 14 13 11 12 10 8 7 5 6 6 5 4 4 4 5 6 7 8 9 10 11 11 11 13 15 14 15 15 16 16 16 15 14 16
7 2 3 3 3 4 3 3 5 5 3 5 10 15 15 15 13 12 11 9 8 8 7 6 6 5 4 5 4 5 6 7 8 9 10 11 11 10 12 14 14 14 14 15 16 16 16 16 16
3 3 2 3 3 2 2 4 3 6 5 3 7 13 15 15 13 12 13 12 11 10 8 7 7 6 5 5 5 5 6 7 8 9 9 11 11 11 12 14 15 14 15 15 16 15 17 17 18
1 3 3 4 3 3 2 4 2 3 2 5 4 6 14 15 13 13 16 15 14 13 12 11 9 7 5 5 5 5 6 6 7 8 9 10 11 11 12 12 13 13 14 16 16 14 16 16 15
4 3 2 1 1 4 2 4 5 5 7 8 9 9 15 16 14 14 16 15 14 13 13 11 8 7 5 5 6 5 5 6 7 8 9 10 10 11 12 13 13 14 13 14 16 14 14 16 15
1 2 2 2 3 4 3 5 4 8 13 13 13 14 15 15 14 14 17 17 16 15 13 11 9 8 7 6 6 6 6 7 8 8 9 10 11 11 12 13 13 13 14 14 14 15 14 15 15
3 3 1 2 2 3 4 2 1 8 11 14 15 15 16 17 15 14 18 17 17 15 13 12 10 9 9 7 6 6 6 7 7 8 9 10 11 11 12 12 13 12 13 14 13 15 14 14 14
3 2 4 2 3 1 2 6 2 3 6 8 10 14 15 16 16 17 19 18 17 17 15 14 12 11 10 8 7 7 6 7 8 8 8 9 10 10 10 11 12 12 12 13 11 14 15 13 13
Wind_Direction
158 148 156 223 233 241 131 104 105 119 113 47 64 34 80 37 12 22 109 60 42 24 11 2 1 356 353 350 349 347 349 349 355 360 359 358 2 358 360 358 351 350 348 349 346 344 342 332 335
155 145 198 267 257 263 105 122 121 85 112 113 82 96 58 78 62 101 138 48 35 21 10 2 2 359 355 356 357 357 354 351 353 355 359 359 359 356 352 348 348 347 347 345 343 343 338 340 333
152 161 258 252 269 312 50 112 122 115 126 151 116 45 55 78 69 87 91 55 31 19 13 7 7 4 6 5 3 3 3 2 0 359 359 357 354 351 347 348 348 348 344 344 340 340 337 336 337
172 175 176 257 52 78 62 127 132 134 119 93 120 83 95 47 57 84 85 45 23 18 17 14 15 12 11 11 7 5 7 12 8 4 360 353 351 351 349 350 347 346 343 341 336 334 333 333 332
188 234 227 187 108 105 114 132 152 143 120 128 209 113 83 81 96 87 73 41 26 17 15 14 22 18 15 13 10 9 5 9 12 5 355 352 353 355 353 348 344 343 340 336 336 332 330 328 330
219 278 247 260 125 120 120 145 146 135 117 116 111 113 94 127 120 90 69 43 27 17 13 13 15 15 16 21 21 22 19 10 2 359 359 357 352 353 349 345 341 340 336 332 331 327 327 325 320
271 260 331 168 146 160 153 156 188 132 132 88 92 87 117 146 126 104 69 43 29 23 16 14 10 9 16 27 22 17 10 4 360 359 357 351 351 353 353 351 348 343 339 336 332 328 327 323 317
6 287 164 188 188 119 139 127 104 58 96 108 354 136 152 146 143 113 68 43 30 24 19 14 11 12 12 13 8 9 5 360 356 354 356 354 356 356 351 351 347 346 343 341 338 333 328 323 314
289 232 223 147 178 120 151 147 93 125 124 89 61 72 111 138 143 133 68 34 25 20 18 11 9 7 6 358 357 5 360 5 6 2 358 2 356 354 353 346 347 344 343 339 339 335 332 324 325
336 269 68 39 66 134 151 167 137 161 140 104 109 116 130 140 142 78 43 25 19 14 11 6 3 1 1 359 357 358 4 8 9 4 359 356 351 349 350 344 343 342 340 338 334 332 331 329 324
21 41 112 48 60 135 140 135 142 158 182 160 161 148 146 142 113 76 57 35 18 9 3 2 1 359 1 358 358 356 357 355 354 354 353 349 346 345 343 341 340 338 336 334 331 328 326 324 320
120 70 71 103 102 133 147 128 125 101 73 134 142 145 147 146 97 68 46 30 14 4 1 0 1 1 359 359 354 351 350 349 346 342 344 347 344 341 342 340 337 335 333 330 329 326 321 320 318
88 118 81 102 107 104 130 118 119 121 113 128 134 147 148 130 103 86 67 35 4 1 2 360 358 1 357 356 353 349 346 344 342 344 347 349 345 343 341 339 338 334 332 329 327 326 323 320 319
110 116 114 116 117 119 153 143 193 157 149 144 155 154 152 132 119 111 55 18 2 1 1 356 357 354 353 352 351 346 345 345 350 351 351 352 348 343 341 342 342 338 335 331 329 329 327 323 320
133 119 136 150 144 122 171 188 217 154 170 165 169 164 155 156 155 129 83 352 354 360 355 352 353 350 353 351 348 348 346 352 354 353 353 352 350 346 344 345 348 346 339 337 335 334 333 328 324
182 206 210 151 181 141 237 104 148 163 179 182 176 177 173 182 184 180 173 299 342 344 348 346 350 352 352 351 349 350 353 355 354 354 353 352 351 349 349 344 345 348 345 341 338 336 336 330 325
185 311 258 167 199 166 229 352 141 178 198 192 192 187 191 186 204 196 209 249 314 331 341 340 345 347 346 343 348 351 356 358 359 357 356 353 353 353 348 345 343 343 343 343 343 339 337 329 326
325 268 228 285 160 215 220 254 180 189 205 204 199 195 204 204 208 194 212 228 299 311 313 314 324 334 339 345 349 355 357 0 1 359 357 356 353 352 349 346 343 341 342 340 337 334 337 334 324
345 279 282 173 124 254 250 264 232 201 209 212 208 208 209 210 192 202 212 224 282 252 289 298 313 333 342 347 351 355 357 358 359 358 357 357 354 351 352 349 347 343 337 332 331 334 330 332 334
263 282 276 161 137 242 272 271 250 215 220 218 215 214 212 204 204 208 215 225 240 243 248 271 292 315 326 335 339 336 340 344 344 351 355 354 354 353 351 347 346 346 341 333 332 334 335 326 341
262 280 276 315 192 236 288 249 200 210 222 219 225 221 214 211 211 209 211 222 226 230 237 244 272 293 315 328 335 340 337 340 350 354 353 350 353 353 353 349 345 346 343 341 332 329 335 332 339
289 77 283 267 277 334 317 359 193 192 216 214 213 211 211 208 214 211 208 218 223 225 232 245 262 280 293 312 329 335 336 337 344 344 346 352 352 354 355 354 352 349 348 343 343 336 333 336 335
35 7 284 266 266 281 160 260 115 207 237 213 210 207 208 205 207 206 209 215 217 216 226 246 258 268 285 298 320 340 336 336 338 343 345 353 354 352 353 349 348 348 347 348 345 346 344 339 338
134 205 230 233 241 229 100 322 163 191 177 152 196 201 201 201 202 208 206 208 215 214 227 242 260 283 283 296 311 322 328 330 332 336 345 347 349 346 350 352 351 348 345 346 345 346 345 342 338
217 264 265 220 218 3 123 260 301 183 178 186 188 200 197 197 200 203 201 207 211 215 224 232 242 264 267 289 288 296 315 315 318 333 338 337 340 343 344 348 351 350 350 343 340 340 341 339 336
187 303 314 296 315 345 161 231 137 174 155 203 216 219 193 196 200 203 203 206 209 211 216 220 227 244 252 276 286 293 302 309 313 321 323 326 330 332 332 338 344 342 347 350 346 340 342 341 339
129 222 37 278 194 273 234 234 199 213 228 206 214 200 198 199 199 204 204 208 213 215 220 225 229 246 253 266 277 286 290 304 304 308 318 321 320 323 328 332 337 348 340 344 350 345 343 344 340
292 68 218 179 294 279 227 274 258 206 224 205 208 206 202 200 201 203 206 209 210 215 219 223 226 236 243 256 273 284 294 299 299 304 309 316 318 320 323 327 329 336 344 342 349 348 343 341 342
155 203 186 315 283 287 308 266 162 185 198 202 209 206 202 198 202 201 205 208 211 213 217 219 221 228 237 240 251 268 280 288 288 292 303 312 317 317 320 324 326 327 326 338 337 345 343 340 341
301 272 250 234 180 246 310 273 151 171 191 210 206 204 204 204 201 202 202 205 208 212 213 215 219 225 231 237 241 252 264 273 279 286 294 301 305 311 317 319 327 324 322 329 329 337 340 341 338